Time,TemperatureF,DewpointF,PressureIn,WindDirection,WindDirectionDegrees,WindSpeedMPH,WindSpeedGustMPH,Humidity,HourlyPrecipIn,Conditions,Clouds,dailyrainin,SoftwareType,DateUTC
2013-05-12 00:00:00,43.7,31.1,29.95,NNW,329,4.0,10.0,61,0.00, +TSGR FG,SKC,-99.99,VWS V12.07,2013-05-12 05:00:00,
2013-05-12 00:05:00,43.7,30.7,29.95,NW,313,2.0,13.0,60,0.00, +TSGR FG,SKC,-99.99,VWS V12.07,2013-05-12 05:05:00,
2013-05-12 00:10:00,43.7,31.1,29.96,North,5,2.0,13.0,61,0.00, +TSGR FG,SKC,-99.99,VWS V12.07,2013-05-12 05:10:00,
2013-05-12 00:15:00,43.7,31.1,29.96,NNW,333,3.0,8.0,61,0.00, +TSGR FG,SKC,-99.99,VWS V12.07,2013-05-12 05:15:00,
2013-05-12 00:20:00,43.4,31.7,29.96,NE,44,6.0,10.0,63,0.00, +TSGR FG,SKC,-99.99,VWS V12.07,2013-05-12 05:20:00,
2013-05-12 00:25:00,43.1,32.2,29.96,North,355,4.0,7.0,65,0.00, +TSGR FG,SKC,-99.99,VWS V12.07,2013-05-12 05:25:00,
2013-05-12 00:30:00,42.9,32.3,29.96,WNW,299,2.0,7.0,66,0.00, +TSGR FG,SKC,-99.99,VWS V12.07,2013-05-12 05:30:00,
2013-05-12 00:35:00,42.7,32.5,29.96,NNE,17,5.0,6.0,67,0.00, +TSGR FG,SKC,-99.99,VWS V12.07,2013-05-12 05:35:00,
2013-05-12 00:40:00,42.5,32.3,29.96,NNW,330,1.0,6.0,67,0.00, +TSGR FG,SKC,-99.99,VWS V12.07,2013-05-12 05:40:00,
2013-05-12 00:45:00,42.4,32.2,29.96,NW,311,5.0,9.0,67,0.00, +TSGR FG,SKC,-99.99,VWS V12.07,2013-05-12 05:45:00,
2013-05-12 00:50:00,42.3,32.5,29.96,NNW,346,2.0,9.0,68,0.00, +TSGR FG,SKC,-99.99,VWS V12.07,2013-05-12 05:50:00,
2013-05-12 00:55:00,42.2,32.8,29.96,NNW,332,3.0,4.0,69,0.00, +TSGR FG,SKC,-99.99,VWS V12.07,2013-05-12 05:55:00,
2013-05-12 01:00:00,41.9,32.8,29.96,NNE,29,5.0,8.0,70,0.00, +TSGR FG,SKC,-99.99,VWS V12.07,2013-05-12 06:00:00,
2013-05-12 01:05:00,41.8,33.1,29.96,NW,323,3.0,9.0,71,0.00, +TSGR FG,SKC,-99.99,VWS V12.07,2013-05-12 06:05:00,
2013-05-12 01:10:00,41.8,32.4,29.96,WNW,298,3.0,10.0,69,0.00, +TSGR FG,SKC,-99.99,VWS V12.07,2013-05-12 06:10:00,
2013-05-12 01:15:00,41.8,32.4,29.96,West,273,7.0,14.0,69,0.00, +TSGR FG,SKC,-99.99,VWS V12.07,2013-05-12 06:15:00,
2013-05-12 01:20:00,41.9,32.1,29.96,NW,321,3.0,14.0,68,0.00, +TSGR FG,SKC,-99.99,VWS V12.07,2013-05-12 06:20:00,
2013-05-12 01:25:00,41.9,31.8,29.96,NW,304,6.0,10.0,67,0.00, +TSGR FG,SKC,-99.99,VWS V12.07,2013-05-12 06:25:00,
2013-05-12 01:30:00,41.8,31.3,29.96,NW,306,4.0,13.0,66,0.00, +TSGR FG,SKC,-99.99,VWS V12.07,2013-05-12 06:30:00,
2013-05-12 01:35:00,41.7,31.6,29.96,North,355,3.0,9.0,67,0.00, +TSGR FG,SKC,-99.99,VWS V12.07,2013-05-12 06:35:00,
2013-05-12 01:40:00,41.5,31.4,29.96,NNW,334,4.0,9.0,67,0.00, +TSGR FG,SKC,-99.99,VWS V12.07,2013-05-12 06:40:00,
2013-05-12 01:45:00,41.2,31.5,29.96,North,355,2.0,6.0,68,0.00, +TSGR FG,SKC,-99.99,VWS V12.07,2013-05-12 06:45:00,
2013-05-12 01:50:00,41.1,31.7,29.96,NNW,340,7.0,7.0,69,0.00, +TSGR FG,SKC,-99.99,VWS V12.07,2013-05-12 06:50:00,
2013-05-12 01:55:00,40.9,31.9,29.96,NNW,342,4.0,8.0,70,0.00, +TSGR FG,SKC,-99.99,VWS V12.07,2013-05-12 06:55:00,
2013-05-12 02:00:00,40.8,31.8,29.96,NNW,328,1.0,8.0,70,0.00, +TSGR FG,SKC,-99.99,VWS V12.07,2013-05-12 07:00:00,
2013-05-12 02:05:00,40.6,31.6,29.96,West,277,2.0,7.0,70,0.00, +TSGR FG,SKC,-99.99,VWS V12.07,2013-05-12 07:05:00,
2013-05-12 02:10:00,40.5,31.5,29.96,NW,321,0.0,7.0,70,0.00, +TSGR FG,SKC,-99.99,VWS V12.07,2013-05-12 07:10:00,
2013-05-12 02:15:00,40.5,31.5,29.96,NW,311,3.0,8.0,70,0.00, +TSGR FG,SKC,-99.99,VWS V12.07,2013-05-12 07:15:00,
2013-05-12 02:20:00,40.4,31.4,29.96,NW,314,6.0,9.0,70,0.00, +TSGR FG,SKC,-99.99,VWS V12.07,2013-05-12 07:20:00,
2013-05-12 02:25:00,40.3,31.3,29.96,WNW,297,4.0,7.0,70,0.00, +TSGR FG,SKC,-99.99,VWS V12.07,2013-05-12 07:25:00,
2013-05-12 02:30:00,40.2,31.2,29.96,WNW,292,2.0,9.0,70,0.00, +TSGR FG,SKC,-99.99,VWS V12.07,2013-05-12 07:30:00,
2013-05-12 02:35:00,40.1,31.1,29.96,NW,326,1.0,11.0,70,0.00, +TSGR FG,SKC,-99.99,VWS V12.07,2013-05-12 07:35:00,
2013-05-12 02:40:00,40.0,31.0,29.96,NW,306,5.0,11.0,70,0.00, +TSGR FG,SKC,-99.99,VWS V12.07,2013-05-12 07:40:00,
2013-05-12 02:45:00,39.8,30.8,29.96,North,9,2.0,8.0,70,0.00, +TSGR FG,SKC,-99.99,VWS V12.07,2013-05-12 07:45:00,
2013-05-12 02:50:00,39.7,30.7,29.96,NW,312,2.0,8.0,70,0.00, +TSGR FG,SKC,-99.99,VWS V12.07,2013-05-12 07:50:00,
2013-05-12 02:55:00,39.6,31.0,29.97,WNW,290,6.0,8.0,71,0.00, +TSGR FG,SKC,-99.99,VWS V12.07,2013-05-12 07:55:00,
2013-05-12 03:00:00,39.5,30.9,29.96,North,355,4.0,8.0,71,0.00, +TSGR FG,SKC,-99.99,VWS V12.07,2013-05-12 08:00:00,
2013-05-12 03:05:00,39.4,30.4,29.97,NNW,332,1.0,9.0,70,0.00, +TSGR FG,SKC,-99.99,VWS V12.07,2013-05-12 08:05:00,
2013-05-12 03:10:00,39.4,30.1,29.96,West,279,2.0,9.0,69,0.00, +TSGR FG,SKC,-99.99,VWS V12.07,2013-05-12 08:10:00,
2013-05-12 03:15:00,39.3,30.4,29.97,NW,311,5.0,7.0,70,0.00, +TSGR FG,SKC,-99.99,VWS V12.07,2013-05-12 08:15:00,
2013-05-12 03:20:00,39.3,30.4,29.96,NW,324,2.0,8.0,70,0.00, +TSGR FG,SKC,-99.99,VWS V12.07,2013-05-12 08:20:00,
2013-05-12 03:25:00,39.2,30.6,29.96,NW,317,10.0,10.0,71,0.00, +TSGR FG,SKC,-99.99,VWS V12.07,2013-05-12 08:25:00,
2013-05-12 03:30:00,39.1,30.5,29.97,WNW,289,9.0,10.0,71,0.00, +TSGR FG,SKC,-99.99,VWS V12.07,2013-05-12 08:30:00,
2013-05-12 03:35:00,39.1,30.5,29.97,NW,309,4.0,7.0,71,0.00, +TSGR FG,SKC,-99.99,VWS V12.07,2013-05-12 08:35:00,
2013-05-12 03:40:00,38.9,30.3,29.97,WNW,298,2.0,9.0,71,0.00, +TSGR FG,SKC,-99.99,VWS V12.07,2013-05-12 08:40:00,
2013-05-12 03:45:00,38.8,29.9,29.97,NNW,333,2.0,12.0,70,0.00, +TSGR FG,SKC,-99.99,VWS V12.07,2013-05-12 08:45:00,
2013-05-12 03:50:00,38.8,29.9,29.97,NW,304,8.0,12.0,70,0.00, +TSGR FG,SKC,-99.99,VWS V12.07,2013-05-12 08:50:00,
2013-05-12 03:55:00,38.7,29.4,29.97,NNW,332,4.0,8.0,69,0.00, +TSGR FG,SKC,-99.99,VWS V12.07,2013-05-12 08:55:00,
2013-05-12 04:00:00,38.6,29.3,29.97,NNW,348,6.0,9.0,69,0.00, +TSGR FG,SKC,-99.99,VWS V12.07,2013-05-12 09:00:00,
2013-05-12 04:05:00,38.5,29.2,29.97,North,360,6.0,9.0,69,0.00, +TSGR FG,SKC,-99.99,VWS V12.07,2013-05-12 09:05:00,
2013-05-12 04:10:00,38.5,28.9,29.97,SW,223,4.0,12.0,68,0.00, +TSGR FG,SKC,-99.99,VWS V12.07,2013-05-12 09:10:00,
2013-05-12 04:15:00,38.4,28.8,29.97,NNW,340,1.0,8.0,68,0.00, +TSGR FG,SKC,-99.99,VWS V12.07,2013-05-12 09:15:00,
2013-05-12 04:20:00,38.3,28.7,29.97,NNW,333,9.0,10.0,68,0.00, +TSGR FG,SKC,-99.99,VWS V12.07,2013-05-12 09:20:00,
2013-05-12 04:25:00,38.2,28.2,29.98,North,360,4.0,7.0,67,0.00, +TSGR FG,SKC,-99.99,VWS V12.07,2013-05-12 09:25:00,
2013-05-12 04:30:00,38.2,28.2,29.98,West,261,3.0,11.0,67,0.00, +TSGR FG,SKC,-99.99,VWS V12.07,2013-05-12 09:30:00,
2013-05-12 04:35:00,38.0,28.0,29.97,North,5,5.0,8.0,67,0.00, +TSGR FG,SKC,-99.99,VWS V12.07,2013-05-12 09:35:00,
2013-05-12 04:40:00,38.0,28.0,29.97,WSW,252,9.0,10.0,67,0.00, +TSGR FG,SKC,-99.99,VWS V12.07,2013-05-12 09:40:00,
2013-05-12 04:45:00,37.9,27.9,29.97,NW,306,4.0,12.0,67,0.00, +TSGR FG,SKC,-99.99,VWS V12.07,2013-05-12 09:45:00,
2013-05-12 04:50:00,37.8,28.2,29.98,NW,320,1.0,12.0,68,0.00, +TSGR FG,SKC,-99.99,VWS V12.07,2013-05-12 09:50:00,
2013-05-12 04:55:00,37.8,28.2,29.98,NNW,327,9.0,9.0,68,0.00, +TSGR FG,SKC,-99.99,VWS V12.07,2013-05-12 09:55:00,
2013-05-12 05:00:00,37.7,28.1,29.98,WNW,295,6.0,9.0,68,0.00, +TSGR FG,SKC,-99.99,VWS V12.07,2013-05-12 10:00:00,
2013-05-12 05:05:00,37.6,28.4,29.98,West,279,4.0,10.0,69,0.00, +TSGR FG,SKC,-99.99,VWS V12.07,2013-05-12 10:05:00,
2013-05-12 05:10:00,37.5,28.3,29.98,NW,309,3.0,10.0,69,0.00, +TSGR FG,SKC,-99.99,VWS V12.07,2013-05-12 10:10:00,
2013-05-12 05:15:00,37.5,28.3,29.98,West,261,1.0,11.0,69,0.00, +TSGR FG,SKC,-99.99,VWS V12.07,2013-05-12 10:15:00,
2013-05-12 05:20:00,37.5,28.3,29.98,NW,304,4.0,11.0,69,0.00, +TSGR FG,SKC,-99.99,VWS V12.07,2013-05-12 10:20:00,
2013-05-12 05:25:00,37.4,28.2,29.98,NW,322,5.0,10.0,69,0.00, +TSGR FG,SKC,-99.99,VWS V12.07,2013-05-12 10:25:00,
2013-05-12 05:30:00,37.4,28.2,29.98,WNW,296,2.0,10.0,69,0.00, +TSGR FG,SKC,-99.99,VWS V12.07,2013-05-12 10:30:00,
2013-05-12 05:35:00,37.3,28.1,29.98,NNW,331,4.0,7.0,69,0.00, +TSGR FG,SKC,-99.99,VWS V12.07,2013-05-12 10:35:00,
2013-05-12 05:40:00,37.2,28.0,29.98,North,355,5.0,7.0,69,0.00, +TSGR FG,SKC,-99.99,VWS V12.07,2013-05-12 10:40:00,
2013-05-12 05:45:00,37.2,28.0,29.99,NNW,340,2.0,10.0,69,0.00, +TSGR FG,SKC,-99.99,VWS V12.07,2013-05-12 10:45:00,
2013-05-12 05:50:00,37.3,28.1,29.99,NW,325,4.0,10.0,69,0.00, +TSGR FG,SKC,-99.99,VWS V12.07,2013-05-12 10:50:00,
2013-05-12 05:55:00,37.2,28.0,29.99,NNW,345,1.0,5.0,69,0.00, +TSGR FG,SKC,-99.99,VWS V12.07,2013-05-12 10:55:00,
2013-05-12 06:00:00,37.1,28.2,30.00,NNW,341,5.0,7.0,70,0.00, +TSGR FG,SKC,-99.99,VWS V12.07,2013-05-12 11:00:00,
2013-05-12 06:05:00,37.0,28.1,30.00,NW,325,4.0,7.0,70,0.00, +TSGR FG,SKC,-99.99,VWS V12.07,2013-05-12 11:05:00,
2013-05-12 06:10:00,37.1,28.2,30.00,West,281,2.0,7.0,70,0.00, +TSGR FG,SKC,-99.99,VWS V12.07,2013-05-12 11:10:00,
2013-05-12 06:15:00,37.3,28.1,30.00,WNW,291,2.0,7.0,69,0.00, +TSGR FG,SKC,-99.99,VWS V12.07,2013-05-12 11:15:00,
2013-05-12 06:20:00,37.5,28.3,30.00,West,278,1.0,7.0,69,0.00, +TSGR FG,SKC,-99.99,VWS V12.07,2013-05-12 11:20:00,
2013-05-12 06:25:00,37.6,28.4,30.00,NW,313,2.0,9.0,69,0.00, +TSGR FG,SKC,-99.99,VWS V12.07,2013-05-12 11:25:00,
2013-05-12 06:30:00,37.8,28.2,30.00,NNW,337,3.0,9.0,68,0.00, +TSGR FG,SKC,-99.99,VWS V12.07,2013-05-12 11:30:00,
2013-05-12 06:35:00,37.8,28.2,30.00,NNW,331,7.0,8.0,68,0.00, +TSGR FG,SKC,-99.99,VWS V12.07,2013-05-12 11:35:00,
2013-05-12 06:40:00,37.8,27.8,30.00,NNE,17,6.0,9.0,67,0.00, +TSGR FG,SKC,-99.99,VWS V12.07,2013-05-12 11:40:00,
2013-05-12 06:45:00,38.0,28.0,30.00,NNW,335,6.0,10.0,67,0.00, +TSGR FG,SKC,-99.99,VWS V12.07,2013-05-12 11:45:00,
2013-05-12 06:50:00,38.2,28.2,30.00,NNW,344,7.0,12.0,67,0.00, +TSGR FG,SKC,-99.99,VWS V12.07,2013-05-12 11:50:00,
2013-05-12 06:55:00,38.3,28.3,30.01,North,355,4.0,11.0,67,0.00, +TSGR FG,SKC,-99.99,VWS V12.07,2013-05-12 11:55:00,
2013-05-12 07:00:00,38.6,28.2,30.01,WNW,297,2.0,11.0,66,0.00, +TSGR FG,SKC,-99.99,VWS V12.07,2013-05-12 12:00:00,
2013-05-12 07:05:00,38.9,28.5,30.01,NW,322,2.0,7.0,66,0.00, +TSGR FG,SKC,-99.99,VWS V12.07,2013-05-12 12:05:00,
2013-05-12 07:10:00,38.9,28.1,30.01,WNW,286,4.0,8.0,65,0.00, +TSGR FG,SKC,-99.99,VWS V12.07,2013-05-12 12:10:00,
2013-05-12 07:15:00,39.0,28.2,30.01,NNW,330,4.0,17.0,65,0.00, +TSGR FG,SKC,-99.99,VWS V12.07,2013-05-12 12:15:00,
2013-05-12 07:20:00,39.3,28.9,30.01,North,355,7.0,17.0,66,0.00, +TSGR FG,SKC,-99.99,VWS V12.07,2013-05-12 12:20:00,
2013-05-12 07:25:00,39.3,28.5,30.01,West,261,8.0,9.0,65,0.00, +TSGR FG,SKC,-99.99,VWS V12.07,2013-05-12 12:25:00,
2013-05-12 07:30:00,39.5,28.7,30.01,NNW,342,7.0,9.0,65,0.00, +TSGR FG,SKC,-99.99,VWS V12.07,2013-05-12 12:30:00,
2013-05-12 07:35:00,39.3,28.2,30.01,NNW,334,5.0,13.0,64,0.00, +TSGR FG,SKC,-99.99,VWS V12.07,2013-05-12 12:35:00,
2013-05-12 07:40:00,39.4,28.6,30.01,SSW,206,3.0,13.0,65,0.00, +TSGR FG,SKC,-99.99,VWS V12.07,2013-05-12 12:40:00,
2013-05-12 07:45:00,39.7,28.9,30.01,NNW,343,7.0,11.0,65,0.00, +TSGR FG,SKC,-99.99,VWS V12.07,2013-05-12 12:45:00,
2013-05-12 07:50:00,39.7,28.9,30.01,NNE,24,3.0,11.0,65,0.00, +TSGR FG,SKC,-99.99,VWS V12.07,2013-05-12 12:50:00,
2013-05-12 07:55:00,40.0,28.8,30.01,NW,305,4.0,7.0,64,0.00, +TSGR FG,SKC,-99.99,VWS V12.07,2013-05-12 12:55:00,
2013-05-12 08:00:00,39.8,28.6,30.01,West,280,6.0,13.0,64,0.00, +TSGR FG,SKC,-99.99,VWS V12.07,2013-05-12 13:00:00,
2013-05-12 08:05:00,40.1,28.9,30.01,NNW,342,4.0,10.0,64,0.00, +TSGR FG,SKC,-99.99,VWS V12.07,2013-05-12 13:05:00,
2013-05-12 08:10:00,40.3,29.1,30.01,NNW,340,3.0,10.0,64,0.00, +TSGR FG,SKC,-99.99,VWS V12.07,2013-05-12 13:10:00,
2013-05-12 08:15:00,40.4,28.8,30.02,West,277,3.0,13.0,63,0.00, +TSGR FG,SKC,-99.99,VWS V12.07,2013-05-12 13:15:00,
2013-05-12 08:20:00,40.5,28.9,30.02,West,279,4.0,13.0,63,0.00, +TSGR FG,SKC,-99.99,VWS V12.07,2013-05-12 13:20:00,
2013-05-12 08:25:00,40.6,28.6,30.02,NNE,17,2.0,12.0,62,0.00, +TSGR FG,SKC,-99.99,VWS V12.07,2013-05-12 13:25:00,
2013-05-12 08:30:00,40.8,28.8,30.02,NW,319,3.0,12.0,62,0.00, +TSGR FG,SKC,-99.99,VWS V12.07,2013-05-12 13:30:00,
2013-05-12 08:35:00,41.1,29.1,30.02,West,281,3.0,9.0,62,0.00, +TSGR FG,SKC,-99.99,VWS V12.07,2013-05-12 13:35:00,
2013-05-12 08:40:00,41.4,29.4,30.02,NW,309,8.0,10.0,62,0.00, +TSGR FG,SKC,-99.99,VWS V12.07,2013-05-12 13:40:00,
2013-05-12 08:45:00,41.2,28.8,30.02,WNW,292,4.0,10.0,61,0.00, +TSGR FG,SKC,-99.99,VWS V12.07,2013-05-12 13:45:00,
2013-05-12 08:50:00,41.1,28.7,30.02,NW,304,5.0,10.0,61,0.00, +TSGR FG,SKC,-99.99,VWS V12.07,2013-05-12 13:50:00,
2013-05-12 08:55:00,41.5,29.9,30.02,NNW,328,7.0,9.0,63,0.00, +TSGR FG,SKC,-99.99,VWS V12.07,2013-05-12 13:55:00,
2013-05-12 09:00:00,41.9,29.9,30.03,North,5,9.0,10.0,62,0.00, +TSGR FG,SKC,-99.99,VWS V12.07,2013-05-12 14:00:00,
2013-05-12 09:05:00,42.4,30.7,30.03,West,261,4.0,9.0,63,0.00, +TSGR FG,SKC,-99.99,VWS V12.07,2013-05-12 14:05:00,
2013-05-12 09:15:00,42.0,29.5,30.02,North,351,6.0,8.0,61,0.00, +TSGR FG,SKC,-99.99,VWS V12.07,2013-05-12 14:15:00,
2013-05-12 09:20:00,41.9,29.9,30.02,NNW,340,6.0,10.0,62,0.00, +TSGR FG,SKC,-99.99,VWS V12.07,2013-05-12 14:20:00,
2013-05-12 09:25:00,42.3,29.8,30.02,NW,317,11.0,11.0,61,0.00, +TSGR FG,SKC,-99.99,VWS V12.07,2013-05-12 14:25:00,
2013-05-12 09:30:00,41.8,29.0,30.03,NNW,338,2.0,11.0,60,0.00, +TSGR FG,SKC,-99.99,VWS V12.07,2013-05-12 14:30:00,
2013-05-12 09:35:00,42.0,29.9,30.03,WNW,293,3.0,10.0,62,0.00, +TSGR FG,SKC,-99.99,VWS V12.07,2013-05-12 14:35:00,
2013-05-12 09:40:00,41.9,29.5,30.03,NW,305,5.0,11.0,61,0.00, +TSGR FG,SKC,-99.99,VWS V12.07,2013-05-12 14:40:00,
2013-05-12 09:45:00,42.1,30.0,30.03,NNW,344,2.0,9.0,62,0.00, +TSGR FG,SKC,-99.99,VWS V12.07,2013-05-12 14:45:00,
2013-05-12 09:50:00,42.7,29.4,30.03,North,5,8.0,11.0,59,0.00, +TSGR FG,SKC,-99.99,VWS V12.07,2013-05-12 14:50:00,
2013-05-12 09:55:00,43.2,29.9,30.03,North,5,4.0,8.0,59,0.00, +TSGR FG,SKC,-99.99,VWS V12.07,2013-05-12 14:55:00,
2013-05-12 10:00:00,43.0,30.5,30.03,NNW,329,4.0,12.0,61,0.00, +TSGR FG,SKC,-99.99,VWS V12.07,2013-05-12 15:00:00,
2013-05-12 10:05:00,42.9,30.4,30.03,WNW,297,1.0,6.0,61,0.00, +TSGR FG,SKC,-99.99,VWS V12.07,2013-05-12 15:05:00,
2013-05-12 10:10:00,43.0,29.7,30.03,NNW,328,4.0,10.0,59,0.00, +TSGR FG,SKC,-99.99,VWS V12.07,2013-05-12 15:10:00,
2013-05-12 10:15:00,43.5,29.7,30.03,NNW,334,4.0,8.0,58,0.00, +TSGR FG,SKC,-99.99,VWS V12.07,2013-05-12 15:15:00,
2013-05-12 10:20:00,43.9,30.9,30.03,NW,325,7.0,8.0,60,0.00, +TSGR FG,SKC,-99.99,VWS V12.07,2013-05-12 15:20:00,
2013-05-12 10:25:00,43.4,30.0,30.03,North,351,3.0,11.0,59,0.00, +TSGR FG,SKC,-99.99,VWS V12.07,2013-05-12 15:25:00,
2013-05-12 10:30:00,44.0,30.6,30.04,NNE,18,3.0,11.0,59,0.00, +TSGR FG,SKC,-99.99,VWS V12.07,2013-05-12 15:30:00,
2013-05-12 10:35:00,44.3,30.0,30.04,NNE,22,1.0,6.0,57,0.00, +TSGR FG,SKC,-99.99,VWS V12.07,2013-05-12 15:35:00,
2013-05-12 10:40:00,43.8,29.6,30.04,NNW,327,4.0,11.0,57,0.00, +TSGR FG,SKC,-99.99,VWS V12.07,2013-05-12 15:40:00,
2013-05-12 10:45:00,44.1,30.7,30.04,West,277,3.0,11.0,59,0.00, +TSGR FG,SKC,-99.99,VWS V12.07,2013-05-12 15:45:00,
2013-05-12 10:50:00,44.0,29.8,30.04,NNW,329,3.0,11.0,57,0.00, +TSGR FG,SKC,-99.99,VWS V12.07,2013-05-12 15:50:00,
2013-05-12 10:55:00,44.2,30.0,30.04,WNW,298,4.0,8.0,57,0.00, +TSGR FG,SKC,-99.99,VWS V12.07,2013-05-12 15:55:00,
2013-05-12 11:00:00,44.5,29.4,30.04,NW,325,4.0,8.0,55,0.00, +TSGR FG,SKC,-99.99,VWS V12.07,2013-05-12 16:00:00,
2013-05-12 11:05:00,44.7,29.1,30.04,WNW,298,7.0,9.0,54,0.00, +TSGR FG,SKC,-99.99,VWS V12.07,2013-05-12 16:05:00,
2013-05-12 11:10:00,44.7,29.1,30.04,NW,306,3.0,12.0,54,0.00, +TSGR FG,SKC,-99.99,VWS V12.07,2013-05-12 16:10:00,
2013-05-12 11:15:00,44.7,29.1,30.04,West,275,3.0,16.0,54,0.00, +TSGR FG,SKC,-99.99,VWS V12.07,2013-05-12 16:15:00,
2013-05-12 11:20:00,45.1,31.2,30.04,NNW,341,5.0,16.0,58,0.00, +TSGR FG,SKC,-99.99,VWS V12.07,2013-05-12 16:20:00,
2013-05-12 11:25:00,46.2,31.4,30.04,WNW,284,3.0,7.0,56,0.00, +TSGR FG,SKC,-99.99,VWS V12.07,2013-05-12 16:25:00,
2013-05-12 11:30:00,45.9,29.8,30.04,WNW,292,2.0,8.0,53,0.00, +TSGR FG,SKC,-99.99,VWS V12.07,2013-05-12 16:30:00,
2013-05-12 11:35:00,45.3,30.1,30.04,NNW,329,6.0,12.0,55,0.00, +TSGR FG,SKC,-99.99,VWS V12.07,2013-05-12 16:35:00,
2013-05-12 11:40:00,45.5,29.8,30.04,NNW,327,7.0,12.0,54,0.00, +TSGR FG,SKC,-99.99,VWS V12.07,2013-05-12 16:40:00,
2013-05-12 11:45:00,45.8,31.0,30.04,WNW,296,3.0,9.0,56,0.00, +TSGR FG,SKC,-99.99,VWS V12.07,2013-05-12 16:45:00,
2013-05-12 11:50:00,45.6,29.5,30.04,WNW,293,3.0,10.0,53,0.00, +TSGR FG,SKC,-99.99,VWS V12.07,2013-05-12 16:50:00,
2013-05-12 11:55:00,45.8,30.1,30.04,West,277,8.0,9.0,54,0.00, +TSGR FG,SKC,-99.99,VWS V12.07,2013-05-12 16:55:00,
2013-05-12 12:00:00,46.0,30.3,30.04,NW,323,6.0,10.0,54,0.00, +TSGR FG,SKC,-99.99,VWS V12.07,2013-05-12 17:00:00,
2013-05-12 12:05:00,46.3,29.6,30.04,WNW,283,2.0,9.0,52,0.00, +TSGR FG,SKC,-99.99,VWS V12.07,2013-05-12 17:05:00,
2013-05-12 12:10:00,46.7,30.5,30.04,WNW,293,4.0,10.0,53,0.00, +TSGR FG,SKC,-99.99,VWS V12.07,2013-05-12 17:10:00,
2013-05-12 12:15:00,46.7,29.1,30.04,NW,324,2.0,12.0,50,0.00, +TSGR FG,SKC,-99.99,VWS V12.07,2013-05-12 17:15:00,
2013-05-12 12:20:00,46.3,29.6,30.03,WNW,291,5.0,12.0,52,0.00, +TSGR FG,SKC,-99.99,VWS V12.07,2013-05-12 17:20:00,
2013-05-12 12:25:00,47.0,29.8,30.03,WNW,300,5.0,12.0,51,0.00, +TSGR FG,SKC,-99.99,VWS V12.07,2013-05-12 17:25:00,
2013-05-12 12:30:00,47.0,29.8,30.03,North,11,7.0,12.0,51,0.00, +TSGR FG,SKC,-99.99,VWS V12.07,2013-05-12 17:30:00,
2013-05-12 12:40:00,47.5,28.8,30.03,NNW,340,5.0,11.0,48,0.00, +TSGR FG,SKC,-99.99,VWS V12.07,2013-05-12 17:40:00,
2013-05-12 12:45:00,47.4,30.2,30.04,NW,319,4.0,12.0,51,0.00, +TSGR FG,SKC,-99.99,VWS V12.07,2013-05-12 17:45:00,
2013-05-12 12:50:00,47.8,30.1,30.04,NNW,342,5.0,12.0,50,0.00, +TSGR FG,SKC,-99.99,VWS V12.07,2013-05-12 17:50:00,
2013-05-12 12:55:00,48.0,29.3,30.04,NW,325,5.0,11.0,48,0.00, +TSGR FG,SKC,-99.99,VWS V12.07,2013-05-12 17:55:00,
2013-05-12 13:00:00,47.9,30.2,30.04,West,277,9.0,12.0,50,0.00, +TSGR FG,SKC,-99.99,VWS V12.07,2013-05-12 18:00:00,
2013-05-12 13:05:00,47.9,29.7,30.04,WNW,294,4.0,9.0,49,0.00, +TSGR FG,SKC,-99.99,VWS V12.07,2013-05-12 18:05:00,
2013-05-12 13:10:00,47.6,28.9,30.04,NNW,333,4.0,12.0,48,0.00, +TSGR FG,SKC,-99.99,VWS V12.07,2013-05-12 18:10:00,
2013-05-12 13:15:00,47.5,28.8,30.04,NW,325,3.0,11.0,48,0.00, +TSGR FG,SKC,-99.99,VWS V12.07,2013-05-12 18:15:00,
2013-05-12 13:20:00,47.9,29.7,30.04,NW,326,2.0,11.0,49,0.00, +TSGR FG,SKC,-99.99,VWS V12.07,2013-05-12 18:20:00,
2013-05-12 13:25:00,48.6,29.8,30.04,WNW,301,6.0,11.0,48,0.00, +TSGR FG,SKC,-99.99,VWS V12.07,2013-05-12 18:25:00,
2013-05-12 13:30:00,48.3,29.5,30.04,NNW,333,5.0,11.0,48,0.00, +TSGR FG,SKC,-99.99,VWS V12.07,2013-05-12 18:30:00,
2013-05-12 13:35:00,48.5,29.2,30.04,NW,325,3.0,8.0,47,0.00, +TSGR FG,SKC,-99.99,VWS V12.07,2013-05-12 18:35:00,
2013-05-12 13:40:00,48.7,29.9,30.04,West,281,4.0,10.0,48,0.00, +TSGR FG,SKC,-99.99,VWS V12.07,2013-05-12 18:40:00,
2013-05-12 13:45:00,49.2,30.4,30.04,WNW,292,5.0,7.0,48,0.00, +TSGR FG,SKC,-99.99,VWS V12.07,2013-05-12 18:45:00,
2013-05-12 13:50:00,49.1,29.8,30.04,WNW,287,3.0,11.0,47,0.00, +TSGR FG,SKC,-99.99,VWS V12.07,2013-05-12 18:50:00,
2013-05-12 13:55:00,49.3,28.9,30.04,NNW,331,3.0,11.0,45,0.00, +TSGR FG,SKC,-99.99,VWS V12.07,2013-05-12 18:55:00,
2013-05-12 14:00:00,49.6,30.2,30.03,NW,306,4.0,11.0,47,0.00, +TSGR FG,SKC,-99.99,VWS V12.07,2013-05-12 19:00:00,
2013-05-12 14:05:00,49.4,29.5,30.03,NNE,12,5.0,9.0,46,0.00, +TSGR FG,SKC,-99.99,VWS V12.07,2013-05-12 19:05:00,
2013-05-12 14:10:00,49.3,28.9,30.03,NNW,342,3.0,12.0,45,0.00, +TSGR FG,SKC,-99.99,VWS V12.07,2013-05-12 19:10:00,
2013-05-12 14:15:00,49.1,28.7,30.03,NW,317,3.0,7.0,45,0.00, +TSGR FG,SKC,-99.99,VWS V12.07,2013-05-12 19:15:00,
2013-05-12 14:20:00,49.9,30.0,30.03,NW,308,7.0,8.0,46,0.00, +TSGR FG,SKC,-99.99,VWS V12.07,2013-05-12 19:20:00,
2013-05-12 14:25:00,50.0,27.8,30.03,North,360,1.0,10.0,42,0.00, +TSGR FG,SKC,-99.99,VWS V12.07,2013-05-12 19:25:00,
2013-05-12 14:30:00,50.0,28.4,30.03,North,360,4.0,10.0,43,0.00, +TSGR FG,SKC,-99.99,VWS V12.07,2013-05-12 19:30:00,
2013-05-12 14:40:00,50.3,28.7,30.03,NNW,338,3.0,13.0,43,0.00, +TSGR FG,SKC,-99.99,VWS V12.07,2013-05-12 19:40:00,
2013-05-12 14:45:00,49.6,27.5,30.03,WNW,293,8.0,11.0,42,0.00, +TSGR FG,SKC,-99.99,VWS V12.07,2013-05-12 19:45:00,
2013-05-12 14:50:00,50.1,29.6,30.03,North,355,5.0,11.0,45,0.00, +TSGR FG,SKC,-99.99,VWS V12.07,2013-05-12 19:50:00,
2013-05-12 14:55:00,50.7,28.5,30.02,NNW,330,10.0,10.0,42,0.00, +TSGR FG,SKC,-99.99,VWS V12.07,2013-05-12 19:55:00,
2013-05-12 15:00:00,50.0,27.8,30.02,North,360,4.0,10.0,42,0.00, +TSGR FG,SKC,-99.99,VWS V12.07,2013-05-12 20:00:00,
2013-05-12 15:05:00,50.7,29.6,30.02,WNW,296,5.0,8.0,44,0.00, +TSGR FG,SKC,-99.99,VWS V12.07,2013-05-12 20:05:00,
2013-05-12 15:10:00,50.7,26.0,30.02,WSW,254,4.0,8.0,38,0.00, +TSGR FG,SKC,-99.99,VWS V12.07,2013-05-12 20:10:00,
2013-05-12 15:15:00,50.5,28.9,30.02,North,9,3.0,7.0,43,0.00, +TSGR FG,SKC,-99.99,VWS V12.07,2013-05-12 20:15:00,
2013-05-12 15:20:00,50.5,28.9,30.02,NW,307,3.0,7.0,43,0.00, +TSGR FG,SKC,-99.99,VWS V12.07,2013-05-12 20:20:00,
2013-05-12 15:25:00,50.8,29.1,30.02,WNW,292,3.0,6.0,43,0.00, +TSGR FG,SKC,-99.99,VWS V12.07,2013-05-12 20:25:00,
2013-05-12 15:30:00,51.0,28.1,30.02,WNW,299,7.0,9.0,41,0.00, +TSGR FG,SKC,-99.99,VWS V12.07,2013-05-12 20:30:00,
2013-05-12 15:35:00,51.1,28.2,30.02,NW,318,4.0,6.0,41,0.00, +TSGR FG,SKC,-99.99,VWS V12.07,2013-05-12 20:35:00,
2013-05-12 15:40:00,51.7,27.6,30.02,NE,35,2.0,9.0,39,0.00, +TSGR FG,SKC,-99.99,VWS V12.07,2013-05-12 20:40:00,
2013-05-12 15:45:00,52.0,29.6,30.02,WSW,257,2.0,5.0,42,0.00, +TSGR FG,SKC,-99.99,VWS V12.07,2013-05-12 20:45:00,
2013-05-12 15:50:00,52.1,27.9,30.01,North,349,5.0,8.0,39,0.00, +TSGR FG,SKC,-99.99,VWS V12.07,2013-05-12 20:50:00,
2013-05-12 15:55:00,51.7,28.8,30.02,West,269,2.0,6.0,41,0.00, +TSGR FG,SKC,-99.99,VWS V12.07,2013-05-12 20:55:00,
2013-05-12 16:00:00,52.4,28.2,30.01,NNE,13,4.0,11.0,39,0.00, +TSGR FG,SKC,-99.99,VWS V12.07,2013-05-12 21:00:00,
2013-05-12 16:05:00,51.9,27.7,30.01,NNW,327,3.0,6.0,39,0.00, +TSGR FG,SKC,-99.99,VWS V12.07,2013-05-12 21:05:00,
2013-05-12 16:10:00,52.1,28.5,30.01,WNW,294,2.0,6.0,40,0.00, +TSGR FG,SKC,-99.99,VWS V12.07,2013-05-12 21:10:00,
2013-05-12 16:15:00,52.4,29.4,30.01,NNW,334,3.0,11.0,41,0.00, +TSGR FG,SKC,-99.99,VWS V12.07,2013-05-12 21:15:00,
2013-05-12 16:20:00,52.9,29.2,30.01,NNW,337,3.0,11.0,40,0.00, +TSGR FG,SKC,-99.99,VWS V12.07,2013-05-12 21:20:00,
2013-05-12 16:25:00,52.6,27.7,30.01,WNW,294,6.0,13.0,38,0.00, +TSGR FG,SKC,-99.99,VWS V12.07,2013-05-12 21:25:00,
2013-05-12 16:30:00,51.7,26.9,30.01,NNW,333,3.0,13.0,38,0.00, +TSGR FG,SKC,-99.99,VWS V12.07,2013-05-12 21:30:00,
2013-05-12 16:35:00,51.5,26.8,30.01,NNE,26,6.0,7.0,38,0.00, +TSGR FG,SKC,-99.99,VWS V12.07,2013-05-12 21:35:00,
2013-05-12 16:40:00,51.5,27.4,30.01,NNW,327,2.0,7.0,39,0.00, +TSGR FG,SKC,-99.99,VWS V12.07,2013-05-12 21:40:00,
2013-05-12 16:45:00,51.8,27.6,30.01,North,9,5.0,8.0,39,0.00, +TSGR FG,SKC,-99.99,VWS V12.07,2013-05-12 21:45:00,
2013-05-12 16:50:00,51.4,26.0,30.01,NW,310,1.0,8.0,37,0.00, +TSGR FG,SKC,-99.99,VWS V12.07,2013-05-12 21:50:00,
2013-05-12 16:55:00,51.5,28.0,30.01,WNW,282,2.0,7.0,40,0.00, +TSGR FG,SKC,-99.99,VWS V12.07,2013-05-12 21:55:00,
2013-05-12 17:00:00,51.5,26.8,30.01,NNW,328,6.0,8.0,38,0.00, +TSGR FG,SKC,-99.99,VWS V12.07,2013-05-12 22:00:00,
2013-05-12 17:05:00,51.2,25.2,30.01,WNW,300,8.0,11.0,36,0.00, +TSGR FG,SKC,-99.99,VWS V12.07,2013-05-12 22:05:00,
2013-05-12 17:10:00,51.2,26.5,30.01,North,9,3.0,11.0,38,0.00, +TSGR FG,SKC,-99.99,VWS V12.07,2013-05-12 22:10:00,
2013-05-12 17:15:00,51.5,26.1,30.01,North,350,4.0,9.0,37,0.00, +TSGR FG,SKC,-99.99,VWS V12.07,2013-05-12 22:15:00,
2013-05-12 17:20:00,52.1,28.5,30.01,SSE,159,0.0,9.0,40,0.00, +TSGR FG,SKC,-99.99,VWS V12.07,2013-05-12 22:20:00,
2013-05-12 17:25:00,53.0,28.1,30.01,NNW,329,3.0,6.0,38,0.00, +TSGR FG,SKC,-99.99,VWS V12.07,2013-05-12 22:25:00,
2013-05-12 17:30:00,53.8,29.4,30.01,SE,131,1.0,7.0,39,0.00, +TSGR FG,SKC,-99.99,VWS V12.07,2013-05-12 22:30:00,
2013-05-12 17:35:00,54.4,27.3,30.01,NW,319,8.0,9.0,35,0.00, +TSGR FG,SKC,-99.99,VWS V12.07,2013-05-12 22:35:00,
2013-05-12 17:40:00,54.2,26.5,30.00,NNW,338,1.0,9.0,34,0.00, +TSGR FG,SKC,-99.99,VWS V12.07,2013-05-12 22:40:00,
2013-05-12 17:45:00,53.6,27.3,30.01,NNW,336,8.0,8.0,36,0.00, +TSGR FG,SKC,-99.99,VWS V12.07,2013-05-12 22:45:00,
2013-05-12 17:50:00,52.8,25.9,30.01,NW,323,0.0,10.0,35,0.00, +TSGR FG,SKC,-99.99,VWS V12.07,2013-05-12 22:50:00,
2013-05-12 17:55:00,52.2,26.7,30.01,WNW,284,2.0,8.0,37,0.00, +TSGR FG,SKC,-99.99,VWS V12.07,2013-05-12 22:55:00,
2013-05-12 18:05:00,52.1,26.0,30.00,SW,231,3.0,7.0,36,0.00, +TSGR FG,SKC,-99.99,VWS V12.07,2013-05-12 23:05:00,
2013-05-12 18:10:00,52.3,26.8,30.00,WNW,295,1.0,8.0,37,0.00, +TSGR FG,SKC,-99.99,VWS V12.07,2013-05-12 23:10:00,
2013-05-12 18:15:00,52.4,25.6,30.00,West,277,3.0,6.0,35,0.00, +TSGR FG,SKC,-99.99,VWS V12.07,2013-05-12 23:15:00,
2013-05-12 18:20:00,52.4,25.6,30.00,West,277,1.0,7.0,35,0.00, +TSGR FG,SKC,-99.99,VWS V12.07,2013-05-12 23:20:00,
2013-05-12 18:25:00,52.1,26.0,30.00,NNW,342,3.0,8.0,36,0.00, +TSGR FG,SKC,-99.99,VWS V12.07,2013-05-12 23:25:00,
2013-05-12 18:30:00,51.9,26.5,30.00,NW,315,1.0,8.0,37,0.00, +TSGR FG,SKC,-99.99,VWS V12.07,2013-05-12 23:30:00,
2013-05-12 18:35:00,52.1,26.0,30.00,North,355,2.0,6.0,36,0.00, +TSGR FG,SKC,-99.99,VWS V12.07,2013-05-12 23:35:00,
2013-05-12 18:40:00,52.0,25.2,30.00,North,5,2.0,10.0,35,0.00, +TSGR FG,SKC,-99.99,VWS V12.07,2013-05-12 23:40:00,
2013-05-12 18:45:00,51.8,25.0,30.00,NNW,336,2.0,7.0,35,0.00, +TSGR FG,SKC,-99.99,VWS V12.07,2013-05-12 23:45:00,
2013-05-12 18:50:00,51.7,26.3,30.00,NNW,340,2.0,7.0,37,0.00, +TSGR FG,SKC,-99.99,VWS V12.07,2013-05-12 23:50:00,
2013-05-12 18:55:00,51.6,25.5,30.00,NW,306,0.0,5.0,36,0.00, +TSGR FG,SKC,-99.99,VWS V12.07,2013-05-12 23:55:00,
2013-05-12 19:00:00,51.5,25.5,30.00,NNW,329,3.0,6.0,36,0.00, +TSGR FG,SKC,-99.99,VWS V12.07,2013-05-13 00:00:00,
2013-05-12 19:05:00,51.4,25.4,30.00,NNW,343,1.0,6.0,36,0.00, +TSGR FG,SKC,-99.99,VWS V12.07,2013-05-13 00:05:00,
2013-05-12 19:10:00,51.3,25.3,30.00,NW,308,2.0,7.0,36,0.00, +TSGR FG,SKC,-99.99,VWS V12.07,2013-05-13 00:10:00,
2013-05-12 19:15:00,51.2,24.5,30.00,NNW,331,0.0,6.0,35,0.00, +TSGR FG,SKC,-99.99,VWS V12.07,2013-05-13 00:15:00,
2013-05-12 19:20:00,51.1,25.1,30.00,NW,309,1.0,6.0,36,0.00, +TSGR FG,SKC,-99.99,VWS V12.07,2013-05-13 00:20:00,
2013-05-12 19:25:00,50.9,25.6,30.00,NNW,331,2.0,5.0,37,0.00, +TSGR FG,SKC,-99.99,VWS V12.07,2013-05-13 00:25:00,
2013-05-12 19:30:00,50.9,25.6,30.00,NW,318,1.0,5.0,37,0.00, +TSGR FG,SKC,-99.99,VWS V12.07,2013-05-13 00:30:00,
2013-05-12 19:35:00,50.8,25.5,30.00,NNW,339,3.0,5.0,37,0.00, +TSGR FG,SKC,-99.99,VWS V12.07,2013-05-13 00:35:00,
2013-05-12 19:40:00,50.8,26.8,30.00,NNW,327,0.0,5.0,39,0.00, +TSGR FG,SKC,-99.99,VWS V12.07,2013-05-13 00:40:00,
2013-05-12 19:45:00,50.6,26.0,30.00,NW,326,1.0,3.0,38,0.00, +TSGR FG,SKC,-99.99,VWS V12.07,2013-05-13 00:45:00,
2013-05-12 19:50:00,50.4,27.0,30.00,North,5,1.0,3.0,40,0.00, +TSGR FG,SKC,-99.99,VWS V12.07,2013-05-13 00:50:00,
2013-05-12 19:55:00,50.2,26.8,30.01,North,5,3.0,3.0,40,0.00, +TSGR FG,SKC,-99.99,VWS V12.07,2013-05-13 00:55:00,
2013-05-12 20:00:00,50.0,28.4,30.01,North,5,1.0,3.0,43,0.00, +TSGR FG,SKC,-99.99,VWS V12.07,2013-05-13 01:00:00,
2013-05-12 20:05:00,49.8,26.5,30.00,North,360,0.0,3.0,40,0.00, +TSGR FG,SKC,-99.99,VWS V12.07,2013-05-13 01:05:00,
2013-05-12 20:10:00,49.6,26.3,30.01,North,360,1.0,3.0,40,0.00, +TSGR FG,SKC,-99.99,VWS V12.07,2013-05-13 01:10:00,
2013-05-12 20:15:00,49.5,26.8,30.00,North,360,0.0,0.0,41,0.00, +TSGR FG,SKC,-99.99,VWS V12.07,2013-05-13 01:15:00,
2013-05-12 20:20:00,49.3,27.2,30.01,North,360,0.0,0.0,42,0.00, +TSGR FG,SKC,-99.99,VWS V12.07,2013-05-13 01:20:00,
2013-05-12 20:25:00,49.0,26.9,30.00,North,360,0.0,0.0,42,0.00, +TSGR FG,SKC,-99.99,VWS V12.07,2013-05-13 01:25:00,
2013-05-12 20:30:00,48.7,26.6,30.01,North,360,1.0,1.0,42,0.00, +TSGR FG,SKC,-99.99,VWS V12.07,2013-05-13 01:30:00,
2013-05-12 20:35:00,48.5,28.1,30.01,North,360,0.0,1.0,45,0.00, +TSGR FG,SKC,-99.99,VWS V12.07,2013-05-13 01:35:00,
2013-05-12 20:40:00,48.2,27.3,30.01,North,360,0.0,1.0,44,0.00, +TSGR FG,SKC,-99.99,VWS V12.07,2013-05-13 01:40:00,
2013-05-12 20:45:00,47.9,28.7,30.01,North,360,0.0,0.0,47,0.00, +TSGR FG,SKC,-99.99,VWS V12.07,2013-05-13 01:45:00,
2013-05-12 20:50:00,47.5,29.3,30.01,North,360,0.0,0.0,49,0.00, +TSGR FG,SKC,-99.99,VWS V12.07,2013-05-13 01:50:00,
2013-05-12 20:55:00,47.1,28.9,30.01,North,360,0.0,0.0,49,0.00, +TSGR FG,SKC,-99.99,VWS V12.07,2013-05-13 01:55:00,
2013-05-12 21:00:00,46.6,29.0,30.02,North,360,0.0,0.0,50,0.00, +TSGR FG,SKC,-99.99,VWS V12.07,2013-05-13 02:00:00,
2013-05-12 21:05:00,46.1,28.0,30.02,North,360,0.0,0.0,49,0.00, +TSGR FG,SKC,-99.99,VWS V12.07,2013-05-13 02:05:00,
2013-05-12 21:10:00,45.6,28.0,30.02,North,360,0.0,0.0,50,0.00, +TSGR FG,SKC,-99.99,VWS V12.07,2013-05-13 02:10:00,
2013-05-12 21:15:00,45.3,29.2,30.02,North,360,0.0,0.0,53,0.00, +TSGR FG,SKC,-99.99,VWS V12.07,2013-05-13 02:15:00,
2013-05-12 21:20:00,44.9,30.2,30.02,North,360,0.0,0.0,56,0.00, +TSGR FG,SKC,-99.99,VWS V12.07,2013-05-13 02:20:00,
2013-05-12 21:25:00,44.4,30.6,30.02,North,360,0.0,0.0,58,0.00, +TSGR FG,SKC,-99.99,VWS V12.07,2013-05-13 02:25:00,
2013-05-12 21:30:00,44.0,30.6,30.02,North,360,0.0,0.0,59,0.00, +TSGR FG,SKC,-99.99,VWS V12.07,2013-05-13 02:30:00,
2013-05-12 21:35:00,43.6,30.6,30.03,North,360,0.0,0.0,60,0.00, +TSGR FG,SKC,-99.99,VWS V12.07,2013-05-13 02:35:00,
2013-05-12 21:40:00,43.4,31.3,30.03,North,360,1.0,2.0,62,0.00, +TSGR FG,SKC,-99.99,VWS V12.07,2013-05-13 02:40:00,
2013-05-12 21:45:00,43.4,32.0,30.03,SSE,166,1.0,4.0,64,0.00, +TSGR FG,SKC,-99.99,VWS V12.07,2013-05-13 02:45:00,
2013-05-12 21:50:00,43.3,32.3,30.03,SSE,166,1.0,4.0,65,0.00, +TSGR FG,SKC,-99.99,VWS V12.07,2013-05-13 02:50:00,
2013-05-12 21:55:00,43.1,32.5,30.03,SSE,166,0.0,1.0,66,0.00, +TSGR FG,SKC,-99.99,VWS V12.07,2013-05-13 02:55:00,
2013-05-12 22:00:00,42.9,32.7,30.03,SSE,166,0.0,1.0,67,0.00, +TSGR FG,SKC,-99.99,VWS V12.07,2013-05-13 03:00:00,
2013-05-12 22:05:00,42.7,32.5,30.03,SSE,166,0.0,4.0,67,0.00, +TSGR FG,SKC,-99.99,VWS V12.07,2013-05-13 03:05:00,
2013-05-12 22:10:00,42.5,32.7,30.03,SSE,168,1.0,4.0,68,0.00, +TSGR FG,SKC,-99.99,VWS V12.07,2013-05-13 03:10:00,
2013-05-12 22:15:00,42.3,32.5,30.03,SSE,168,0.0,2.0,68,0.00, +TSGR FG,SKC,-99.99,VWS V12.07,2013-05-13 03:15:00,
2013-05-12 22:20:00,42.0,32.9,30.03,SSE,168,0.0,2.0,70,0.00, +TSGR FG,SKC,-99.99,VWS V12.07,2013-05-13 03:20:00,
2013-05-12 22:30:00,40.9,32.2,30.03,SSE,168,0.0,2.0,71,0.00, +TSGR FG,SKC,-99.99,VWS V12.07,2013-05-13 03:30:00,
2013-05-12 22:35:00,40.5,32.5,30.03,SSE,168,0.0,1.0,73,0.00, +TSGR FG,SKC,-99.99,VWS V12.07,2013-05-13 03:35:00,
2013-05-12 22:40:00,40.2,32.6,30.03,SSE,168,0.0,1.0,74,0.00, +TSGR FG,SKC,-99.99,VWS V12.07,2013-05-13 03:40:00,
2013-05-12 22:45:00,39.8,32.5,30.03,SSE,168,0.0,2.0,75,0.00, +TSGR FG,SKC,-99.99,VWS V12.07,2013-05-13 03:45:00,
2013-05-12 22:50:00,39.5,32.6,30.03,SSE,168,0.0,2.0,76,0.00, +TSGR FG,SKC,-99.99,VWS V12.07,2013-05-13 03:50:00,
2013-05-12 22:55:00,39.3,32.7,30.03,SSE,168,0.0,1.0,77,0.00, +TSGR FG,SKC,-99.99,VWS V12.07,2013-05-13 03:55:00,
2013-05-12 23:00:00,39.1,32.8,30.03,SSE,168,0.0,2.0,78,0.00, +TSGR FG,SKC,-99.99,VWS V12.07,2013-05-13 04:00:00,
2013-05-12 23:05:00,38.9,32.6,30.04,SSE,168,0.0,0.0,78,0.00, +TSGR FG,SKC,-99.99,VWS V12.07,2013-05-13 04:05:00,
2013-05-12 23:10:00,38.8,32.9,30.04,SSE,168,0.0,1.0,79,0.00, +TSGR FG,SKC,-99.99,VWS V12.07,2013-05-13 04:10:00,
2013-05-12 23:15:00,38.7,32.8,30.04,ESE,103,2.0,4.0,79,0.00, +TSGR FG,SKC,-99.99,VWS V12.07,2013-05-13 04:15:00,
2013-05-12 23:20:00,38.8,33.2,30.05,ENE,64,2.0,4.0,80,0.00, +TSGR FG,SKC,-99.99,VWS V12.07,2013-05-13 04:20:00,
2013-05-12 23:25:00,38.9,33.0,30.05,ENE,64,1.0,4.0,79,0.00, +TSGR FG,SKC,-99.99,VWS V12.07,2013-05-13 04:25:00,
2013-05-12 23:30:00,39.0,33.0,30.05,East,98,2.0,5.0,79,0.00, +TSGR FG,SKC,-99.99,VWS V12.07,2013-05-13 04:30:00,
2013-05-12 23:35:00,39.0,33.0,30.05,East,91,4.0,5.0,79,0.00, +TSGR FG,SKC,-99.99,VWS V12.07,2013-05-13 04:35:00,
2013-05-12 23:40:00,39.1,33.2,30.06,NNE,23,0.0,5.0,79,0.00, +TSGR FG,SKC,-99.99,VWS V12.07,2013-05-13 04:40:00,
2013-05-12 23:45:00,39.2,32.9,30.05,East,83,4.0,4.0,78,0.00, +TSGR FG,SKC,-99.99,VWS V12.07,2013-05-13 04:45:00,
2013-05-12 23:50:00,39.0,32.7,30.06,ENE,71,2.0,4.0,78,0.00, +TSGR FG,SKC,-99.99,VWS V12.07,2013-05-13 04:50:00,
2013-05-12 23:55:00,39.0,33.0,30.06,ENE,66,1.0,3.0,79,0.00, +TSGR FG,SKC,-99.99,VWS V12.07,2013-05-13 04:55:00,